Lincoln, NE

5:55 AM CDT on April 25, 2018 (GMT -0500)
Lincoln Municipal

Weather History for KLNK - January, 1998

Change the Weather History Date:

Monday, January 12, 1998

  Actual Average Record
Temperature  
Mean Temperature 11 °F 24 °F  
Max Temperature 21 °F 35 °F 64 °F (1987)
Min Temperature 0 °F 14 °F -33 °F (1974)
Degree Days  
Heating Degree Days 54 41  
Month to date heating degree days 489  
Since 1 July heating degree days 2934  
Cooling Degree Days 0 0  
Month to date cooling degree days 0  
Year to date cooling degree days 0  
Moisture  
Dew Point 8 °F    
Average Humidity 84    
Maximum Humidity 100    
Minimum Humidity 70    
Precipitation  
Precipitation 0.00 in 0.02 in 0.74 in (1890)
Month to date precipitation 0.24  
Year to date precipitation 0.24  
Snow  
Snow 0.00 in 0.20 in - ()
Month to date snowfall 1.9  
Since 1 July snowfall 10.6  
Snow Depth 1.00 in    
Sea Level Pressure  
Sea Level Pressure 30.18 in    
Wind  
Wind Speed 12 mph (North)    
Max Wind Speed 21 mph    
Max Gust Speed 23 mph    
Visibility 6 miles    
Events Snow    
T = Trace of Precipitation, MM = Missing Value Source: NWS Daily Summary

Daily Weather History Graph

Daily Weather History Graph

Search for Another Location

Airport or City:

Astronomy

Jan. 12, 1998 Rise Set
Actual Time 7:50 AM CST 5:20 PM CST
Civil Twilight 7:20 AM CST 5:51 PM CST
Nautical Twilight 6:46 AM CST 6:25 PM CST
Astronomical Twilight 6:13 AM CST 6:58 PM CST
Moon 5:43 PM CST (1/12) 7:29 AM CST (1/12)
Length of Visible Light 10h 30m
Length of Day
9h 30m
Full, 100% of the Moon is Illuminated
Jan 12
Full
Jan 20
Last Quarter
Jan 28
New
Feb 3
First Quarter
Feb 11
Full

Hourly Weather History & Observations

Time (CST) Temp. Windchill Dew Point Humidity Pressure Visibility Wind Dir Wind Speed Gust Speed Precip Events Conditions
12:54 AM 21.0 °F 13.4 °F 19.0 °F 92% 30.04 in 9.0 mi East 5.8 mph - 0.00 in Snow Light Snow
1:54 AM 21.0 °F 14.6 °F 18.0 °F 88% 30.04 in 7.0 mi NNE 4.6 mph - 0.00 in Snow Light Snow
2:54 AM 21.0 °F 13.4 °F 19.9 °F 96% 30.04 in 4.0 mi NNE 5.8 mph - 0.00 in Snow Light Snow
3:39 AM 21.2 °F 13.6 °F 19.4 °F 93% 29.98 in 4.0 mi NE 5.8 mph - 0.00 in Snow Light Snow
3:54 AM 21.0 °F 13.4 °F 19.9 °F 96% 30.03 in 4.0 mi North 5.8 mph - 0.00 in Snow Light Snow
4:39 AM 21.2 °F 13.6 °F 19.4 °F 93% 29.98 in 3.0 mi NNE 5.8 mph - 0.00 in Snow Light Snow
4:54 AM 21.0 °F 14.6 °F 19.9 °F 96% 30.04 in 3.0 mi NNE 4.6 mph - 0.00 in Snow Light Snow
5:54 AM 21.0 °F 9.9 °F 19.9 °F 96% 30.04 in 2.5 mi North 10.4 mph - 0.00 in Snow Light Snow
6:26 AM 17.6 °F 2.7 °F 17.6 °F 100% 30.02 in 4.0 mi North 16.1 mph - 0.00 in Snow Light Snow
6:54 AM 16.0 °F 1.1 °F 14.0 °F 92% 30.09 in 4.0 mi North 15.0 mph - 0.00 in Snow Light Snow
6:57 AM 15.8 °F 0.3 °F 14.0 °F 93% 30.04 in 4.0 mi North 16.1 mph - 0.00 in Snow Light Snow
7:06 AM 15.8 °F -1.5 °F 12.2 °F 86% 30.04 in 4.0 mi North 20.7 mph - 0.00 in Snow Light Snow
7:19 AM 14.0 °F -3.4 °F 12.2 °F 93% 30.05 in 4.0 mi North 19.6 mph - 0.00 in Snow Light Snow
7:54 AM 12.9 °F -4.4 °F 10.9 °F 92% 30.14 in 3.0 mi NNW 18.4 mph - 0.00 in Snow Light Snow
8:34 AM 12.2 °F -3.7 °F 8.6 °F 85% 30.11 in 1.5 mi NNW 15.0 mph - 0.00 in Snow Light Snow
8:46 AM 12.2 °F -4.3 °F 8.6 °F 85% 30.11 in 1.2 mi NNW 16.1 mph - 0.00 in Snow Light Snow
8:54 AM 10.9 °F -7.5 °F 8.1 °F 88% 30.18 in 1.2 mi North 19.6 mph 23.0 mph 0.00 in Snow Light Snow
9:06 AM 10.4 °F -7.2 °F 8.6 °F 92% 30.12 in 1.5 mi North 17.3 mph - 0.00 in Snow Light Snow
9:19 AM 10.4 °F -5.4 °F 8.6 °F 92% 30.12 in 2.5 mi North 13.8 mph - 0.00 in Snow Light Snow
9:27 AM 10.4 °F -7.2 °F 6.8 °F 85% 30.13 in 3.0 mi North 17.3 mph - 0.00 in Snow Light Snow
9:35 AM 10.4 °F -6.6 °F 6.8 °F 85% 30.14 in 5.0 mi NNW 16.1 mph - 0.00 in Snow Light Snow
9:54 AM 10.0 °F -8.6 °F 6.1 °F 84% 30.22 in 4.0 mi NNW 19.6 mph - 0.00 in Snow Light Snow
10:02 AM 10.4 °F -7.7 °F 6.8 °F 85% 30.16 in 2.0 mi North 18.4 mph - 0.00 in Snow Light Snow
10:10 AM 10.4 °F -7.2 °F 6.8 °F 85% 30.15 in 1.0 mi North 17.3 mph - 0.00 in Snow Light Snow
10:20 AM 10.4 °F -7.7 °F 6.8 °F 85% 30.16 in 1.0 mi North 18.4 mph - 0.00 in Snow Light Snow
10:30 AM 10.4 °F -7.7 °F 6.8 °F 85% 30.17 in 4.0 mi North 18.4 mph - 0.00 in Snow Light Snow
10:39 AM 10.4 °F -6.6 °F 6.8 °F 85% 30.17 in 4.0 mi North 16.1 mph - 0.00 in Snow Light Snow
10:54 AM 10.0 °F -8.1 °F 5.0 °F 80% 30.26 in 5.0 mi North 18.4 mph - 0.00 in Snow Light Snow
11:16 AM 10.4 °F -7.2 °F 6.8 °F 85% 30.19 in 7.0 mi North 17.3 mph - 0.00 in Snow Light Snow
11:26 AM 10.4 °F -7.7 °F 5.0 °F 79% 30.20 in 7.0 mi NNW 18.4 mph - 0.00 in   Overcast
11:44 AM 10.4 °F -7.2 °F 3.2 °F 73% 30.20 in 9.0 mi North 17.3 mph - 0.00 in   Mostly Cloudy
11:54 AM 9.0 °F -9.0 °F 5.0 °F 84% 30.25 in 8.0 mi North 17.3 mph - 0.00 in   Mostly Cloudy
12:04 PM 8.6 °F -9.5 °F 3.2 °F 79% 30.19 in 9.0 mi North 17.3 mph - N/A   Mostly Cloudy
12:12 PM 8.6 °F -10.0 °F 3.2 °F 79% 30.19 in 10.0 mi North 18.4 mph - N/A   Mostly Cloudy
12:54 PM 9.0 °F -9.5 °F 1.9 °F 73% 30.25 in 10.0 mi North 18.4 mph - N/A   Mostly Cloudy
1:54 PM 10.0 °F -8.1 °F 3.0 °F 73% 30.26 in 10.0 mi North 18.4 mph - 0.00 in Snow Light Snow
2:54 PM 10.0 °F -5.9 °F 1.9 °F 70% 30.26 in 10.0 mi North 13.8 mph - 0.00 in   Scattered Clouds
3:54 PM 10.9 °F -6.5 °F 3.0 °F 70% 30.28 in 10.0 mi North 17.3 mph - N/A   Partly Cloudy
4:54 PM 8.1 °F -9.0 °F -0.0 °F 70% 30.32 in 10.0 mi North 15.0 mph - N/A   Partly Cloudy
5:54 PM 6.1 °F -5.6 °F -0.9 °F 73% 30.34 in 10.0 mi NNW 6.9 mph - N/A   Clear
6:54 PM 3.9 °F -5.3 °F -2.0 °F 76% 30.37 in 10.0 mi North 4.6 mph - N/A   Clear
7:54 PM 1.9 °F - -2.9 °F 80% 30.40 in 10.0 mi Calm Calm - N/A   Clear
8:54 PM 1.0 °F -8.7 °F -4.0 °F 79% 30.41 in 10.0 mi North 4.6 mph - N/A   Clear
9:54 PM 1.0 °F -10.3 °F -4.0 °F 79% 30.42 in 10.0 mi North 5.8 mph - N/A   Clear
10:54 PM 1.0 °F -6.7 °F -4.0 °F 79% 30.43 in 10.0 mi North 3.5 mph - N/A   Clear
11:54 PM -0.0 °F -7.9 °F -5.1 °F 79% 30.44 in 10.0 mi North 3.5 mph - N/A   Clear